Location: Newark
(25.6108°S, 54.5803°W)
Time: 07:49:45
(UTC+00:00)

Courier 1B - Pass Details

Date: 30 October 2020
Orbit: 962 x 1209 km, 28.3° (Epoch: 02 December)

Event Time Altitude Azimuth Distance (km) Brightness Sun altitude
Rises 01:09:48 0° 293° (WNW) 3,911 10.9 -39.1°
Reaches altitude 10° 01:12:30 10° 294° (WNW) 2,990 10.2 -39.5°
Enters shadow 01:13:42 16° 295° (WNW) 2,592 9.8 -39.7°
Maximum altitude 01:19:56 76° 18° (NNE) 1,204 - -40.6°
Drops below altitude 10° 01:27:46 10° 102° (ESE) 3,140 - -41.7°
Sets 01:30:40 0° 103° (ESE) 4,116 - -42.1°
